Location: Arroyo de Valdeoliva
(40.1604°N, 4.9878°W)
Time: 18:37:08
(UTC+00:00)

SL-16 R/B - Visible Passes

Search period start: 07 March 2026 00:00
Search period end: 17 March 2026 00:00
Orbit: 841 x 845 km, 71.0° (Epoch: 7 March)

Date Brightness Start Highest point End Pass type
(mag) Time Alt. Az. Time Alt. Az. Time Alt. Az.
7 Mar 4.6 03:50:49 12° NNW 03:50:49 12° NNW 03:51:31 10° N visible
8 Mar 4.7 03:36:23 12° N 03:36:23 12° N 03:36:52 10° N visible
9 Mar 4.8 03:21:56 11° N 03:21:56 11° N 03:22:12 10° N visible
10 Mar 4.9 03:07:27 10° N 03:07:27 10° N 03:07:32 10° N visible
